Location: Givhans Ferry State Park
(33.0284°N, 80.3868°W)
Time: 14:50:34
(UTC-04:00)

Envisat - Visible Passes

Search period start: 08 June 2026 00:00
Search period end: 18 June 2026 00:00
Orbit: 761 x 763 km, 98.4° (Epoch: 8 June)

Date Brightness Start Highest point End Pass type
(mag) Time Alt. Az. Time Alt. Az. Time Alt. Az.
8 Jun 4.6 03:03:05 10° NE 03:07:12 25° E 03:08:00 24° ESE visible
8 Jun 4.0 04:41:41 10° N 04:46:02 30° WNW 04:48:08 22° WSW visible
9 Jun 2.9 04:03:21 10° N 04:08:24 74° WNW 04:09:52 46° SSW visible
10 Jun 3.7 03:25:46 10° NNE 03:30:35 44° E 03:31:36 39° SE visible
10 Jun 4.7 05:05:49 10° NNW 05:09:07 18° WNW 05:11:43 12° WSW visible
11 Jun 5.0 02:49:13 10° NE 02:52:34 18° E 02:53:20 17° ESE visible
11 Jun 3.5 04:26:51 10° N 04:31:36 42° WNW 04:33:27 30° WSW visible
12 Jun 3.0 03:48:49 10° NNE 03:53:54 79° ESE 03:55:11 51° S visible
13 Jun 4.3 03:11:32 10° NE 03:16:00 31° E 03:16:54 29° ESE visible
13 Jun 4.3 04:50:41 10° NNW 04:54:43 24° WNW 04:57:02 18° WSW visible
14 Jun 5.4 02:35:58 10° ENE 02:37:55 12° E 02:38:38 12° E visible
14 Jun 3.1 04:12:09 10° N 04:17:08 59° WNW 04:18:45 40° SW visible
15 Jun 3.4 03:34:22 10° NNE 03:39:21 55° E 03:40:28 45° SE visible
15 Jun 4.9 05:15:06 10° NNW 05:17:45 14° WNW 05:20:23 10° W visible
16 Jun 4.7 02:57:30 10° NE 03:01:22 22° E 03:02:12 21° ESE visible
16 Jun 3.8 04:35:46 10° N 04:40:17 34° WNW 04:42:18 25° WSW visible
17 Jun 2.9 03:57:33 10° N 04:02:38 84° WNW 04:04:02 49° SSW visible
